Flag for Canada Weather past 2 weeks in Prince George, British Columbia, Canada

Now
52 °F

More clouds than sun.


Feels Like: 48 °F
Forecast: 45 / 63 °F
Wind: 10 mph from South

Location: Prince George

Current Time: Aug 31, 2015 at 8:35:13 AM

Latest Report: Aug 31, 2015 at 8:00 AM


Visibility: 9 mi

Pressure: 29.62 "Hg (27.65 "Hg at 573m altitude)

Humidity: 62%

Dew point: 39 °F

Location of Prince GeorgeLocation

Historic Weather in Prince George — Graph

°F

Prince George temperature yesterday

Maximum temperature yesterday: 68 °F (at 4:00 PM)
Minimum temperature yesterday: 48 °F (at 6:00 AM)
Average temperature yesterday: 57 °F

Past Weeks' High & Low Weather Summary

 TemperatureHumidityPressure
High79 °F (Aug 18, 4:00 PM)100% (Aug 17, 6:00 AM)30.25 "Hg (Aug 17, 6:00 AM)
Low30 °F (Aug 22, 6:00 AM)25% (Aug 26, 4:00 PM)29.36 "Hg (Aug 29, 8:00 PM)
Average57 °F66%29.93 "Hg
* Reported Aug 16 7:00 AM — Aug 31 7:00 AM, Prince George, Weather by CustomWeather, © 2015

Note: Actual official high and low records may vary slightly from our data, if they occured in-between our weather recording intervals... More about our weather records

Advertising

Prince George weather history for previous 24 hours

 ConditionsComfort  
Time TempWeatherWind HumidityBarometerVisibility
7:00 AM
Mon, Aug 31
54 °FPartly cloudy.12 mph58%29.60 "Hg9 mi
6:00 AM54 °FOvercast.13 mph58%29.58 "Hg9 mi
5:00 AM54 °FOvercast.12 mph58%29.56 "Hg9 mi
4:00 AM54 °FPassing clouds.13 mph58%29.55 "Hg9 mi
3:00 AM54 °FPassing clouds.15 mph63%29.53 "Hg9 mi
2:00 AM55 °FMostly cloudy.15 mph59%29.51 "Hg9 mi
1:00 AM54 °FLight rain. Passing clouds.15 mph67%29.50 "Hg9 mi
12:00 AM55 °FMostly cloudy.20 mph59%29.48 "Hg9 mi
11:00 PM
Sun, Aug 30
55 °FMostly cloudy.16 mph63%29.46 "Hg9 mi
10:00 PM57 °FLight rain. Overcast.22 mph55%29.46 "Hg9 mi
9:56 PM57 °FLight rain. Overcast.20 mph55%29.46 "Hg9 mi
9:00 PM54 °FOvercast.14 mph63%29.46 "Hg9 mi
8:00 PM54 °FMostly cloudy.20 mph67%29.48 "Hg9 mi
7:00 PM57 °FLight rain. Mostly cloudy.18 mph55%29.51 "Hg9 mi
6:58 PM59 °FLight rain. Mostly cloudy.20 mph48%29.51 "Hg9 mi
6:00 PM61 °FOvercast.16 mph36%29.50 "Hg9 mi
5:00 PM66 °FScattered clouds.18 mph28%29.47 "Hg9 mi
4:00 PM68 °FPartly sunny.18 mph28%29.46 "Hg9 mi
3:00 PM66 °FPartly sunny.13 mph35%29.48 "Hg9 mi
2:00 PM66 °FScattered clouds.17 mph35%29.50 "Hg9 mi
1:00 PM66 °FPassing clouds.20 mph40%29.53 "Hg9 mi
12:00 PM63 °FSunny.20 mph45%29.54 "Hg9 mi
11:00 AM61 °FSunny.20 mph52%29.56 "Hg9 mi
10:00 AM55 °FPartly sunny.20 mph59%29.58 "Hg9 mi
9:00 AM54 °FMostly cloudy.12 mph63%29.59 "Hg9 mi
8:46 AM52 °FMore clouds than sun.9 mph67%29.58 "Hg9 mi
8:00 AM50 °FMostly cloudy.10 mph71%29.57 "Hg9 mi
Weather by CustomWeather, © 2015

See weather overviewHow to use our weather pages